Regional Weather Roundup
Issued by NWS Northern Indiana

Home | Current Version | Previous Version | Graphics & Text | Print | Product List | Glossary On
Versions: 1 2 3 4 5 6 7 8 9 10 11 12 13 14 15 16 17 18 19 20 21 22 23 24 25 26 27 28 29 30 31 32 33 34 35 36 37 38 39 40 41 42 43 44 45 46 47 48 49 50
000
ASUS43 KIWX 231410
RWRIWX

KIWX WEATHER ROUNDUP
NATIONAL WEATHER SERVICE NORTHERN INDIANA
1000 AM EDT FRI JUN 23 2017

NOTE: "FAIR" INDICATES FEW OR NO CLOUDS BELOW 12,000 FEET WITH NO
SIGNIFICANT WEATHER AND/OR OBSTRUCTIONS TO VISIBILITY.

* THESE STATIONS ARE NOT UNDER NWS QUALITY CONTROL. THEY ALSO MAY NOT
  REPORT WEATHER SUCH AS PRECIPITATION OR FOG.

INZ001>027-231500-
NORTHERN INDIANA

CITY           SKY/WX    TMP DP  RH WIND       PRES   REMARKS
GARY*          CLOUDY    68  66  94 NW9       29.72R
VALPARAISO     CLOUDY    69  67  93 NW7       29.71R
MICHIGAN CITY* HVY RAIN  64  64 100 NW8       29.70R
LAPORTE*       CLOUDY    67  66  95 W6        29.70R
KNOX*          CLOUDY    64  64 100 W7        29.69R
SOUTH BEND     PTSUNNY   68  67  96 W12       29.68R
ELKHART*       PTSUNNY   68  66  94 SW5       29.65F
GOSHEN         LGT RAIN  71  64  78 S3        29.65F
MONTICELLO*    MOSUNNY   71  67  88 NW9       29.69S
LOGANSPORT*    MOSUNNY   68  64  88 CALM      29.69F
ROCHESTER*     CLOUDY    70  68  94 CALM      29.68F
WARSAW*        LGT RAIN  68  64  88 CALM      29.66F
AUBURN*        CLOUDY    70  66  88 N5        29.68S
FORT WAYNE     PTSUNNY   72  66  81 NW16G28   29.69R
HUNTINGTON*    LGT RAIN  68  67  96 NW8       29.69F
PERU/GRISSOM   LGT RAIN  68  68 100 N6        29.66F

$$
INZ028>050-231500-
CENTRAL INDIANA

CITY           SKY/WX    TMP DP  RH WIND       PRES   REMARKS
LAFAYETTE      RAIN      68  67  96 NW8       29.70R FOG
KOKOMO*        LGT RAIN  70  66  88 N14       29.71R FOG
MUNCIE*        HVY RAIN  76  72  87 W13G23    29.71R VSB 3/4
INDIANAPOLIS   HVY RAIN  75  73  93 W12       29.71S VSB 3/4

$$
MIZ043>046-050>051-056>058-064>065-071>073-077>080-231500-
SOUTHWEST LOWER MICHIGAN

CITY           SKY/WX    TMP DP  RH WIND       PRES   REMARKS
BATTLE CREEK   LGT RAIN  71  70  96 SE5       29.62F
BENTON HARBOR  CLOUDY    66  63  90 VRB7      29.68R
COLDWATER*     CLOUDY    73  71  95 W3        29.65F
HILLSDALE*     CLOUDY    70  68  94 CALM      29.66F
HOLLAND        CLOUDY    66  64  93 NW8       29.67R
GRAND RAPIDS   CLOUDY    69  66  90 NW7       29.64R
KALAMAZOO      LGT RAIN  70  66  87 VRB3      29.61F
STURGIS*       LGT RAIN  69  67  93 CALM      29.64F
THREE RIVERS*  LGT RAIN  70  67  92 S5        29.64F

$$
OHZ001>008-015>018-024>025-231500-
NORTHWEST OHIO

CITY           SKY/WX    TMP DP  RH WIND       PRES   REMARKS
WAUSEON*       RAIN      72  72 100 SW13      29.67R
DEFIANCE       RAIN      70  69  97 W8        29.68S FOG
FINDLAY        LGT RAIN  72  67  84 W15       29.67F
TOLEDO EXPRESS RAIN      72  72 100 SW13      29.65R FOG
TOLEDO METCALF RAIN      73  73 100 SW13      29.65S FOG
LIMA           LGT RAIN  70  69  97 W10       29.69F FOG

$$
AND FOR LAKE MICHIGAN COASTAL AND OPEN LAKE BUOY OBSERVATIONS

STATION/POSITION TEMP    WIND        PRES    VSBY  WAVE
                 AIR SEA DIR/SP/G                  HT/PER
                 (F)     (DEG/KT/KT) (MB)    (MI)  (FT/S)
CALUMET HARBOR    65     350/  4/ 11 1005.5R
MICHIGAN CITY     66     250/ 19/ 25   N/A
BURNS HARBOR      66     300/  8/ 11 1006.4R
SOUTH LAKE BUOY   62 61  350/  8/ 10 1004.2          1/ 4
4 MI NW BRIDGMAN  65 68  360/ 12/ 14 1005.6          2/ 3
MICHIGAN CITY     65 67  330/ 16/ 19   N/A           1/ 2

$$
&&



USA.gov is the U.S. government's official web portal to all federal, state and local government web resources and services.